Cloud_Cover
3 0 0 0 0 0 0 0 0 0 0 0 0 0 0 85 100 100 63 4 100 100 100 100 100 100 100 100 100 0 0 4 8 0 0 0 0 0 0 0 0 12 100 100
5 0 0 0 0 0 0 0 0 1 0 0 0 37 0 100 100 100 99 35 16 100 100 100 100 98 78 95 61 7 5 74 100 84 59 23 13 14 5 66 99 100 100 100
5 0 0 0 0 0 0 0 0 0 0 0 1 18 98 99 100 100 100 19 3 1 45 76 52 0 2 61 4 5 7 0 62 88 91 79 74 34 99 100 100 100 100 100
83 2 0 0 0 0 0 0 0 0 0 2 28 16 100 100 100 100 100 67 100 11 0 0 0 2 2 60 100 97 75 8 0 10 19 98 92 100 100 100 100 100 100 100
6 14 2 0 0 0 0 0 0 0 0 7 35 82 24 5 100 100 85 0 100 73 0 0 0 2 0 0 3 5 22 90 13 64 11 19 0 86 100 100 100 100 100 100
100 8 2 0 0 0 0 0 0 0 3 5 93 100 22 36 93 100 54 6 18 0 0 0 0 0 0 0 5 5 0 0 2 18 97 100 100 100 100 100 100 100 100 100
31 5 4 0 0 0 0 0 0 4 8 100 100 82 30 20 100 100 57 3 0 0 0 1 2 4 7 16 0 4 19 31 26 13 5 18 49 100 100 100 100 100 100 100
7 50 3 0 0 0 0 0 0 0 1 53 93 68 65 98 100 100 34 5 1 0 5 59 99 93 39 4 5 4 0 2 0 0 1 22 82 20 26 76 100 100 100 51
17 5 0 0 0 0 0 0 0 0 0 25 11 64 73 85 60 100 59 6 3 0 0 5 5 95 75 1 0 3 3 4 5 4 0 0 10 34 0 9 4 8 100 100
3 3 0 1 1 0 0 0 0 0 0 0 0 1 0 9 88 92 4 0 0 1 3 1 4 5 5 5 4 2 0 0 0 0 0 0 0 0 0 0 0 7 100 100
4 5 0 0 4 0 1 0 0 0 0 0 0 0 5 5 5 5 5 5 4 5 2 4 3 5 5 5 5 5 5 5 3 0 0 0 0 0 0 0 2 19 77 70
4 2 0 0 0 0 0 0 0 0 0 0 0 0 5 5 5 5 5 15 29 5 5 68 72 67 5 5 5 5 5 5 6 5 5 5 5 1 5 5 16 100 99 40
0 0 0 0 0 0 0 2 5 1 0 0 0 3 5 5 5 2 5 14 24 28 33 5 6 30 4 5 5 5 5 5 5 5 15 46 73 73 28 5 5 5 40 100
0 0 0 0 0 0 0 0 0 5 5 5 5 4 3 1 0 3 90 98 100 100 95 80 9 65 78 41 5 7 9 48 55 88 100 99 98 100 100 86 5 2 0 70
0 0 0 0 0 0 0 0 5 5 5 4 2 4 2 2 3 5 5 18 19 36 18 5 37 78 74 22 5 5 12 13 71 100 100 90 8 4 21 7 2 0 0 92
0 0 0 0 0 0 5 0 5 5 24 5 75 9 5 5 5 5 5 5 5 5 5 5 5 5 5 1 5 5 5 4 2 5 4 48 0 0 0 0 5 8 37 65
0 0 0 0 0 4 5 4 10 66 6 5 0 0 0 4 2 5 5 5 5 37 79 5 5 5 4 2 5 5 2 36 18 71 0 0 5 2 14 3 7 40 55 90
0 0 0 0 0 4 8 10 5 11 5 4 2 3 0 1 4 5 5 5 5 6 45 5 5 4 3 5 5 5 0 2 38 5 4 4 28 100 86 76 64 80 52 56
5 0 0 0 0 4 27 30 4 5 5 5 5 5 5 5 38 12 5 5 5 10 0 21 100 83 38 9 5 0 0 2 5 4 32 24 100 76 100 100 100 100 100 100
1 0 0 0 3 41 6 9 5 5 5 5 5 5 5 5 5 5 8 77 61 5 4 12 24 50 100 31 5 5 5 3 5 47 100 100 100 100 100 100 100 100 100 100
0 0 0 5 16 86 42 5 4 5 5 5 5 5 5 4 5 5 5 5 4 0 5 20 5 39 61 16 14 44 20 11 86 100 100 100 100 100 100 100 100 100 100 100
2 0 0 2 4 7 48 23 5 5 5 5 5 5 4 4 5 5 5 4 3 45 74 7 43 8 5 15 10 4 48 72 100 100 100 100 100 100 100 100 100 100 100 100
3 0 0 0 4 19 98 91 40 7 5 5 5 5 5 5 5 5 12 91 16 7 0 4 7 20 96 71 6 2 56 100 100 100 100 100 100 100 100 100 100 100 100 100
5 1 0 0 5 66 86 6 5 5 5 5 5 5 5 5 7 97 100 5 5 5 26 10 5 5 82 98 16 20 97 100 100 100 100 100 100 100 100 100 82 91 100 100
1 2 0 5 5 45 9 21 11 5 34 4 1 5 5 77 41 67 9 5 5 5 6 12 31 100 20 5 70 100 100 100 100 100 98 100 100 100 100 100 72 100 55 5
0 1 5 27 59 50 43 14 6 5 5 5 5 5 13 8 4 3 3 4 8 54 43 85 100 90 68 77 100 100 100 100 100 100 65 90 100 100 100 100 92 74 5 23